Regional Weather Roundup
Issued by NWS

Home | Current Version | Previous Version | Graphics & Text | Print | Product List | Glossary Off
Versions: 1 2 3 4 5 6 7 8 9 10 11 12 13 14 15 16 17 18 19 20 21 22 23 24 25 26 27 28 29 30 31 32 33 34 35 36 37 38 39 40 41 42 43 44 45 46 47 48 49 50

000
ASUS43 KTOP 161508
RWRKS

WEATHER ROUNDUP FOR KANSAS
NATIONAL WEATHER SERVICE GOODLAND KS
1000 AM CDT TUE SEP 16 2014

NOTE:  "FAIR" INDICATES FEW OR NO CLOUDS BELOW 12,000 FEET WITH NO
SIGNIFICANT WEATHER AND/OR OBSTRUCTIONS TO VISIBILITY.

KSZ001>006-013>018-027>032-041>047-161600-
NORTHWEST KANSAS

CITY           SKY/WX    TMP DP  RH WIND       PRES   REMARKS
GOODLAND       PTSUNNY   60  53  77 SW15      30.16F
HAYS           CLOUDY    55  46  71 SE8       30.21S
HILL CITY      CLOUDY    56  50  80 S5        30.20F
RUSSELL        CLOUDY    55  51  86 SE8       30.21F
$$

KSZ061>065-074>080-084>089-161600-
SOUTHWEST KANSAS

CITY           SKY/WX    TMP DP  RH WIND       PRES   REMARKS
DODGE CITY     CLOUDY    60  55  83 SE10      30.21S
ELKHART          N/A     62  55  77 S9          N/A
GARDEN CITY    CLOUDY    60  56  86 S10       30.20S
GREAT BEND     CLOUDY    57  48  72 SE10      30.21F
LIBERAL        MOSUNNY   66  55  68 S10       30.22F
$$

KSZ066>073-081>083-090>101-161600-
SOUTHEAST KANSAS

CITY           SKY/WX    TMP DP  RH WIND       PRES   REMARKS
CHANUTE        CLOUDY    63  55  75 NE7       30.21S
COFFEYVILLE    CLOUDY    60  56  86 NE9       30.20S
HUTCHINSON     CLOUDY    60  50  69 E5        30.23S
MEDICINE LODGE   N/A     63  55  75 E6        30.20S
NEWTON         SUNNY     61  48  63 E9        30.23F
PARSONS        CLOUDY    61  54  77 CALM      30.22R
WICHITA INTL   CLOUDY    61  51  70 E5        30.21R
WICHITA JABRA  CLOUDY    60  52  74 E5        30.21S
WICHITA MCCONL CLOUDY    61  50  67 NE9       30.22R
WINFIELD       CLOUDY    62  54  74 E9        30.21S
$$

KSZ007>012-019>026-033>040-048>060-102>105-161600-
NORTHEAST KANSAS

CITY           SKY/WX    TMP DP  RH WIND       PRES   REMARKS
CONCORDIA      SUNNY     57  51  80 S10       30.22F
EMPORIA        SUNNY     58  51  78 E10       30.22F
LAWRENCE       SUNNY     58  51  78 E7        30.24F
MANHATTAN      SUNNY     56  50  80 CALM      30.24S
OLATHE IND     SUNNY     58  51  78 E8        30.24F
OLATHE EXE     SUNNY     57  51  80 E7        30.23F
SALINA         CLOUDY    56  50  80 SE9       30.23F
TOPEKA BILLARD SUNNY     58  52  80 E6        30.25S
TOPEKA FORBES  SUNNY     58  51  78 E7        30.24S
$$


USA.gov is the U.S. government's official web portal to all federal, state and local government web resources and services.